Location: Unspecified
(45.6669°N, 0.0000°E)
Time: 12:01:16
(UTC+00:00)

ISS - Pass Details

Date: 27 May 2019
Orbit: 407 x 418 km, 51.6° (Epoch: 20 June)

Event Time Altitude Azimuth Distance (km) Brightness Sun altitude
Rises 21:18:20 0° 295° (WNW) 2,356 1.2 -13.9°
Reaches altitude 10° 21:20:34 10° 305° (NW) 1,495 0.3 -14.1°
Maximum altitude 21:23:39 33° 12° (NNE) 731 -2.1 -14.5°
Drops below altitude 10° 21:26:44 10° 78° (ENE) 1,498 -1.2 -14.8°
Enters shadow 21:26:52 - 79° (E) 1,549 -1.1 -14.8°
